RH
21 22 23 22 22 21 20 19 18 17 16 16 16 15 15 15 14 13 15 17 16 15 17 19 23 23 36 38 19 20 20 24 29 34 28 30 32 31 35 28 26 27 30 27 28 27 29
20 21 21 21 20 20 19 18 18 17 17 17 17 16 15 14 13 13 14 14 13 14 20 22 23 24 50 28 21 24 23 26 27 29 27 27 32 32 38 32 28 28 30 30 26 29 29
20 19 18 19 19 19 19 18 18 17 17 17 16 15 14 14 13 14 14 13 16 24 21 22 23 36 34 25 24 22 25 29 31 31 31 31 36 39 37 35 23 27 34 28 31 30 31
18 18 18 18 18 18 18 18 17 17 16 16 16 14 15 15 15 14 14 14 26 24 21 23 25 48 33 22 23 20 24 24 31 34 36 40 42 45 40 29 28 32 23 35 34 34 32
20 19 19 18 17 16 17 16 17 16 16 16 15 15 17 17 16 14 15 21 26 29 26 27 48 41 27 18 21 23 28 26 29 35 40 35 38 37 31 26 26 24 37 34 34 32 35
35 32 24 20 18 16 16 16 16 16 16 16 16 17 18 20 15 14 22 32 22 31 32 43 33 35 18 23 24 24 26 29 29 28 37 38 37 36 23 30 41 39 36 35 40 33 34
42 39 38 31 25 22 19 18 17 17 17 17 18 19 20 22 16 16 16 32 33 40 26 29 30 24 22 24 23 24 28 25 26 28 28 26 37 30 28 27 28 27 30 34 32 28 31
64 55 48 43 40 37 30 22 19 19 19 19 19 21 24 22 18 22 24 41 55 58 54 29 30 29 26 28 27 24 25 26 24 28 22 30 28 25 22 23 24 24 29 37 32 27 29
77 73 69 65 60 53 48 39 29 23 24 26 21 23 27 26 24 38 46 56 64 64 65 30 27 25 24 29 23 27 28 27 26 27 24 24 21 20 22 19 27 26 35 36 41 38 34
83 82 80 79 74 73 69 65 57 41 43 65 37 25 31 29 32 36 57 62 68 67 61 22 24 27 24 25 29 26 27 31 27 25 26 20 16 23 25 20 28 34 34 37 43 46 44
92 89 88 86 83 81 80 78 74 68 64 79 64 28 35 33 33 40 46 56 69 67 87 21 23 20 18 24 25 30 26 26 29 26 23 29 23 33 25 21 28 30 33 40 39 46 43
100 100 98 95 92 91 89 88 85 83 77 82 59 41 40 34 48 54 50 62 69 73 73 24 20 19 19 20 19 16 21 24 20 24 22 20 23 25 22 25 27 29 29 35 39 46 80
96 98 100 100 100 98 96 96 94 90 87 86 75 53 39 34 47 37 50 61 73 66 18 23 27 23 22 21 19 18 21 24 29 44 43 28 22 21 22 29 28 42 47 78 68 82 65
93 92 96 96 100 100 100 99 99 98 95 89 78 56 49 41 36 35 59 47 59 20 23 22 23 25 20 20 19 17 18 25 24 25 35 39 60 21 22 32 42 49 40 70 65 56 46
94 96 96 100 100 100 100 100 100 100 99 94 78 56 49 53 33 36 55 63 47 24 25 30 25 21 21 20 18 17 16 26 30 26 30 32 32 23 22 26 32 38 46 30 51 39 39
89 92 91 98 99 99 100 100 100 100 100 96 69 50 42 31 30 49 50 51 29 22 28 26 24 17 20 21 19 15 15 24 34 26 23 25 37 22 25 22 28 31 25 42 54 55 46
78 82 83 83 80 80 92 98 100 100 99 97 54 60 50 29 33 55 57 42 24 22 29 28 24 23 19 20 19 18 16 31 27 28 23 24 29 31 26 28 25 38 35 31 33 36 49
82 84 85 92 94 85 92 100 100 100 99 90 45 80 46 29 58 48 50 27 36 28 29 32 31 29 26 22 23 21 19 23 26 24 25 31 32 45 32 23 21 28 29 27 50 44 40
87 92 96 97 100 94 96 96 96 100 100 57 68 55 37 37 67 61 33 26 32 31 29 30 30 29 25 26 26 22 20 33 28 26 26 28 37 53 39 33 27 37 31 29 29 45 58
90 98 97 96 96 99 96 96 92 100 100 74 51 76 52 45 40 34 42 41 31 32 34 28 28 29 30 32 28 29 27 33 29 27 39 32 34 39 57 44 36 37 28 28 33 65 54
85 91 95 97 91 99 99 99 93 100 100 79 56 76 51 68 50 39 32 35 32 34 37 32 34 35 31 33 24 28 28 30 37 39 41 43 49 46 48 44 42 43 42 40 47 44 49
77 85 89 90 91 99 99 100 94 100 100 63 71 62 45 46 38 41 42 44 43 42 29 35 40 32 29 36 26 30 26 28 30 39 38 44 55 48 60 48 50 56 48 46 46 45 46
74 77 91 91 93 100 100 100 100 99 100 81 56 43 53 58 45 48 51 45 54 48 41 31 33 35 36 34 32 30 29 31 29 32 41 44 55 61 72 47 54 68 56 52 44 50 51
82 77 83 92 94 100 100 100 100 99 100 84 53 45 60 83 65 60 53 43 51 49 43 42 31 37 37 38 43 47 52 51 50 50 35 56 56 63 81 63 86 64 57 56 51 55 56
88 90 83 92 96 95 100 100 100 98 99 99 75 57 70 90 68 64 61 49 59 53 69 72 48 39 41 47 54 55 58 61 58 52 57 50 52 93 86 77 58 72 68 63 62 70 56
94 98 94 89 96 97 97 100 100 99 100 100 87 60 70 90 82 51 58 62 76 83 76 50 52 48 50 63 93 97 85 63 67 67 50 52 59 95 76 94 77 72 64 52 57 82 59
99 98 98 98 97 98 96 99 100 100 100 100 95 78 72 94 78 47 54 62 52 63 84 78 71 71 71 100 98 97 88 62 84 82 75 80 94 94 91 96 66 61 56 59 73 80 60
99 98 98 98 98 97 99 98 100 100 100 100 97 88 74 95 78 52 51 58 69 76 89 86 90 82 94 99 99 94 90 82 74 63 58 75 95 91 94 97 86 56 66 82 77 59 57
99 100 99 98 98 97 94 97 100 100 100 100 99 98 73 84 93 85 81 74 70 77 78 85 88 83 79 96 97 98 100 90 74 92 60 91 66 65 65 76 65 59 65 57 58 62 62
Wind_Speed
12 13 13 13 14 14 15 15 15 16 17 18 19 19 21 22 22 23 20 19 20 19 19 15 9 4 2 4 2 2 5 7 6 4 6 6 7 7 7 8 9 3 8 9 8 4 7
11 11 12 13 13 14 14 14 15 16 17 18 20 21 22 24 26 25 20 23 23 18 10 7 1 2 1 2 4 3 5 6 4 5 8 5 5 6 7 9 6 7 9 11 2 7 6
10 11 12 12 13 14 15 16 16 17 18 20 21 23 25 26 28 22 24 25 16 9 7 4 4 5 3 2 2 3 6 5 3 5 6 7 5 4 7 7 3 7 7 6 7 7 2
9 10 10 11 12 13 14 15 17 18 19 21 22 24 26 28 28 22 26 23 9 7 5 4 5 1 2 2 0 5 5 4 3 3 3 4 3 5 3 8 5 4 1 6 10 8 7
8 8 10 11 12 13 14 15 16 18 19 21 22 24 27 29 27 23 25 12 7 6 5 5 2 2 4 3 2 6 5 6 4 1 2 3 4 3 7 6 5 7 6 8 5 7 10
7 8 9 10 11 12 13 14 16 17 19 21 23 26 28 30 23 24 20 10 5 4 6 3 2 2 1 3 4 3 4 5 3 1 3 4 3 3 5 6 4 7 6 5 6 4 11
8 9 9 10 11 12 13 14 16 17 19 22 24 27 28 30 18 22 21 4 4 1 7 3 4 3 2 10 2 1 4 4 4 4 4 2 2 5 8 5 7 10 6 4 4 4 5
7 8 10 11 11 12 13 14 16 18 20 22 24 27 28 28 14 20 19 7 3 2 5 3 3 3 1 3 2 3 11 3 3 5 4 2 4 5 7 8 8 4 5 6 4 2 4
8 8 9 10 11 13 14 16 17 18 20 22 25 27 29 27 10 12 15 7 1 1 3 2 2 3 3 4 3 4 8 3 3 5 5 3 3 6 9 5 11 6 4 3 4 6 8
10 11 10 11 11 12 14 15 16 18 20 23 24 25 28 25 4 13 4 9 3 1 2 3 2 2 2 4 1 3 5 1 3 4 6 2 3 6 9 6 8 6 6 6 6 6 2
14 14 13 12 12 13 13 15 17 18 20 23 24 24 25 17 10 4 9 9 4 2 3 3 2 2 2 2 5 2 1 3 5 6 3 2 4 4 6 4 5 5 6 6 6 7 6
16 16 16 15 15 15 15 15 16 18 18 21 22 23 25 14 7 8 14 7 1 1 2 2 2 2 4 3 2 4 4 4 1 3 6 2 2 1 3 9 5 9 5 8 7 3 2
16 16 16 17 17 16 16 16 17 17 18 20 21 22 19 13 6 15 13 3 3 4 2 2 3 5 5 2 1 3 3 4 4 5 5 4 3 3 3 7 2 9 6 3 3 1 3
19 19 17 18 18 17 17 16 17 17 19 20 20 21 16 8 11 13 5 2 4 2 5 1 3 8 3 5 2 3 4 2 5 5 5 3 4 2 5 3 3 5 1 2 4 3 4
19 18 18 18 15 14 14 14 16 17 17 20 19 15 9 7 12 10 2 2 2 4 2 7 8 3 4 4 2 3 3 2 4 6 3 4 4 3 3 2 3 6 4 1 4 5 3
18 17 18 18 17 15 14 13 12 14 15 14 15 8 4 8 9 5 2 2 2 2 2 2 4 2 5 7 6 2 1 2 4 3 3 1 5 2 3 1 4 2 2 2 2 4 4
16 17 17 16 17 18 16 14 11 11 12 10 5 4 2 7 7 1 2 1 1 4 0 2 3 5 4 6 3 4 2 2 1 4 2 1 4 4 1 4 1 1 1 2 1 1 2
15 15 16 15 15 15 13 13 10 9 8 4 1 3 3 5 2 1 3 2 2 1 2 3 2 4 4 5 4 4 3 3 3 1 2 1 2 3 4 3 3 2 3 2 1 2 3
14 14 15 14 14 13 11 10 10 9 6 2 1 3 4 1 2 2 2 1 2 3 3 3 3 4 3 3 4 4 2 2 1 3 1 2 2 4 1 2 1 3 4 4 3 3 5
16 14 14 13 14 12 11 10 9 9 8 4 0 2 2 1 2 1 3 4 2 0 3 3 3 2 3 4 6 4 2 3 3 2 3 2 4 6 5 6 1 4 3 5 5 3 4
16 15 14 13 13 13 12 10 8 9 10 7 1 3 1 2 2 3 3 2 3 3 3 2 4 7 5 4 2 5 6 4 5 4 1 1 5 7 8 9 7 9 12 10 9 9 6
16 16 15 14 14 13 13 11 9 10 12 4 3 2 1 2 1 0 4 4 5 3 2 5 6 6 6 7 6 3 2 4 5 4 4 4 4 3 5 11 12 12 14 14 14 13 10
18 17 16 17 16 14 14 12 13 14 17 5 4 1 2 3 2 1 4 5 4 1 7 6 4 6 7 6 4 5 3 6 4 3 6 4 3 3 4 1 6 9 12 5 5 4 2
17 18 17 18 18 18 17 14 16 15 20 11 6 5 3 3 4 5 3 3 4 5 3 5 3 4 2 4 5 4 5 8 7 8 6 7 3 2 4 5 5 1 4 2 4 6 6
19 18 19 19 19 19 18 16 18 18 18 25 10 5 3 3 4 4 8 3 3 1 4 5 9 2 4 4 4 6 4 2 3 1 4 5 5 3 3 4 7 3 1 2 1 3 4
19 19 19 20 20 21 20 18 20 20 20 28 20 15 4 2 7 2 3 5 4 4 3 5 2 3 2 3 2 4 4 3 2 2 1 3 5 4 3 4 5 3 3 4 2 2 6
20 20 20 21 21 21 23 21 21 22 22 31 12 24 5 3 4 5 4 5 6 3 2 2 3 2 5 4 3 4 4 2 4 4 5 3 1 8 7 4 2 3 2 3 2 2 6
22 21 21 22 22 23 22 24 25 26 24 35 16 25 16 3 3 6 5 4 2 3 5 3 2 3 4 4 3 3 4 5 2 3 5 6 5 3 3 4 8 2 1 2 3 5 5
23 22 23 23 23 23 24 24 25 25 30 34 11 23 31 3 2 5 6 6 4 0 3 7 3 3 3 4 3 2 2 2 4 3 3 4 5 2 2 1 4 7 8 6 5 6 4
Wind_Direction
49 46 43 41 39 36 34 30 25 22 18 13 7 4 359 355 351 347 343 337 330 322 309 309 299 281 349 232 37 43 349 336 352 342 315 343 319 355 356 334 329 350 344 322 297 351 297
42 41 38 35 32 31 29 25 21 18 15 10 6 2 359 355 351 345 342 337 334 327 325 321 255 173 280 273 85 23 337 342 333 310 320 336 353 329 277 309 298 336 303 284 15 22 355
34 32 30 28 27 24 22 18 16 14 11 9 6 2 359 355 352 349 341 339 343 357 353 352 149 132 255 16 55 11 356 356 352 322 319 18 345 314 325 291 351 274 294 302 90 27 10
26 25 22 20 21 19 19 16 13 11 10 8 5 1 358 354 352 349 343 342 5 13 31 73 124 142 357 141 72 11 346 314 334 6 341 328 310 277 238 283 241 224 166 39 62 18 326
18 17 13 13 14 13 14 13 12 10 8 5 2 360 357 353 354 353 345 2 26 46 37 96 69 253 96 83 11 345 353 336 323 335 311 292 288 289 303 325 353 23 337 346 55 9 53
8 7 7 5 7 8 7 6 7 8 5 2 0 359 357 356 358 358 352 351 23 31 7 3 298 262 85 15 332 324 332 342 299 285 231 237 234 281 5 9 359 321 331 324 56 324 76
359 1 2 3 4 3 360 1 2 3 2 360 358 357 357 355 359 6 16 345 339 165 17 22 335 294 54 334 318 192 336 307 237 216 341 119 14 23 345 344 296 282 299 296 108 282 86
346 352 358 1 0 0 358 358 358 359 359 357 356 355 356 352 355 9 39 62 65 266 320 141 278 234 254 338 264 102 342 278 281 302 316 207 69 4 301 285 326 313 333 20 164 258 321
317 327 338 346 350 354 358 358 357 358 357 354 353 353 352 352 356 13 52 54 358 257 253 133 36 346 10 332 1 8 358 331 305 303 359 322 30 323 309 17 350 341 36 342 285 312 265
299 305 314 322 331 339 344 348 352 354 353 352 349 351 353 356 34 348 49 348 351 213 218 38 97 84 294 322 248 1 358 328 243 333 335 38 357 346 330 10 4 309 20 296 281 314 306
285 290 296 303 312 319 328 334 340 345 348 349 347 350 351 358 334 18 319 334 325 246 93 353 62 262 187 317 309 164 322 275 347 329 313 288 3 349 342 359 332 289 312 282 294 290 308
285 282 286 291 298 304 312 321 327 334 340 344 345 345 345 350 344 324 330 334 296 25 316 28 267 335 353 148 117 298 219 229 288 282 224 185 145 265 311 295 248 280 287 246 238 235 357
283 286 292 289 289 292 301 309 317 324 329 336 341 338 334 337 317 322 334 266 8 76 153 30 321 345 333 341 243 32 331 29 20 5 344 327 155 119 294 329 313 357 1 323 341 28 222
275 274 279 284 286 283 290 297 305 313 320 328 334 332 331 325 328 334 350 280 31 83 43 91 270 299 285 4 152 300 282 195 71 350 304 355 331 28 354 41 308 306 350 106 301 356 295
273 279 277 279 279 286 287 294 300 303 309 319 331 334 315 303 332 343 310 352 1 26 1 337 292 257 172 183 222 317 138 59 58 17 39 342 298 151 65 341 10 320 38 22 292 262 294
270 271 273 273 277 279 285 292 298 302 307 317 332 317 267 322 333 334 307 269 64 46 327 257 294 11 332 358 336 275 189 62 122 27 358 29 308 360 133 193 237 298 312 328 288 323 309
278 278 278 278 279 277 275 279 289 300 299 309 331 317 305 337 331 259 249 329 26 113 282 254 314 288 291 328 328 288 342 96 56 137 304 352 182 278 8 198 33 237 247 264 192 209 290
280 282 283 283 287 291 281 272 278 281 293 299 326 283 325 355 333 162 298 17 348 256 166 241 247 274 272 311 280 277 311 94 80 19 297 96 264 271 265 46 15 347 325 314 281 357 287
283 284 283 286 288 286 284 274 275 268 251 162 228 275 339 17 264 217 117 112 284 231 231 209 256 225 25 289 294 249 354 101 114 249 347 98 263 314 173 49 41 283 234 226 328 39 241
279 286 284 279 282 288 284 278 257 265 227 190 104 286 280 4 143 151 296 287 233 134 290 291 291 10 259 255 234 262 275 159 136 333 43 26 254 214 232 271 348 255 228 217 219 208 269
272 274 278 281 277 278 284 274 253 251 219 178 132 249 207 246 201 213 84 16 228 240 210 244 250 230 228 265 255 250 237 209 180 155 163 255 261 252 264 282 289 268 267 252 217 212 228
271 268 264 265 266 269 268 263 245 232 207 196 161 212 326 299 166 196 161 221 221 265 172 236 234 297 236 239 238 307 233 184 226 165 184 185 271 277 273 262 259 264 261 248 248 247 253
267 267 263 262 263 265 262 250 241 229 205 184 193 224 98 159 173 191 223 219 230 289 230 256 342 302 279 268 323 325 284 297 269 205 193 185 231 297 262 266 295 270 268 248 208 81 93
271 264 260 257 255 257 263 243 240 234 229 209 181 173 173 236 214 207 228 227 237 252 289 339 349 272 349 324 293 260 251 247 249 245 209 203 215 235 284 319 249 98 7 310 59 84 97
269 267 259 259 255 250 255 241 239 241 231 222 203 177 166 234 222 256 234 214 358 224 244 241 261 76 346 295 332 308 263 269 229 39 252 238 208 263 245 217 295 205 50 24 10 105 60
264 264 262 255 258 252 247 247 237 241 233 221 219 203 152 149 220 200 165 172 219 218 255 222 97 78 216 57 211 237 239 273 214 164 158 264 235 212 200 239 259 61 82 6 338 218 60
264 263 261 262 256 252 243 245 242 237 237 219 218 212 167 192 229 176 188 187 178 179 192 319 168 163 95 182 208 221 246 165 246 220 165 135 197 226 234 256 257 92 49 313 141 172 75
263 263 260 257 258 257 249 245 250 238 235 215 222 214 194 208 223 200 195 169 114 171 179 156 64 221 165 206 207 211 242 208 276 230 174 163 187 202 200 246 258 10 73 205 109 62 76
265 262 260 258 255 254 252 248 253 246 231 224 213 220 208 189 299 240 227 225 206 167 139 171 200 171 177 205 201 257 233 239 228 253 17 200 215 197 207 236 85 50 84 64 35 96 77